owner,sensor,date,latitude,longitude,sea_water_turbidity,qcFlag 
SCCF RECON,ioos:station:SCCF:51:1,2009-07-01T00:00:00Z,26.5545,-82.1715,12.13,1111122 
SCCF RECON,ioos:station:SCCF:51:1,2009-07-01T01:00:00Z,26.5545,-82.1715,13.17,1111122 
SCCF RECON,ioos:station:SCCF:51:1,2009-07-01T02:00:00Z,26.5545,-82.1715,14.57,1111122 
SCCF RECON,ioos:station:SCCF:51:1,2009-07-01T03:00:00Z,26.5545,-82.1715,30.09,1111122 
SCCF RECON,ioos:station:SCCF:51:1,2009-07-01T04:00:00Z,26.5545,-82.1715,76.14,1111122 
SCCF RECON,ioos:station:SCCF:51:1,2009-07-01T05:00:00Z,26.5545,-82.1715,82.11,1111122 
SCCF RECON,ioos:station:SCCF:51:1,2009-07-01T06:00:00Z,26.5545,-82.1715,18.19,1111122 
SCCF RECON,ioos:station:SCCF:51:1,2009-07-01T07:00:00Z,26.5545,-82.1715,17.68,1111122 
SCCF RECON,ioos:station:SCCF:51:1,2009-07-01T08:00:00Z,26.5545,-82.1715,150.31,1111122 
SCCF RECON,ioos:station:SCCF:51:1,2009-07-01T09:00:00Z,26.5545,-82.1715,140.25,1111122 
SCCF RECON,ioos:station:SCCF:51:1,2009-07-01T10:00:00Z,26.5545,-82.1715,9.17,1111122 
SCCF RECON,ioos:station:SCCF:51:1,2009-07-01T11:00:00Z,26.5545,-82.1715,6.93,1111122 
SCCF RECON,ioos:station:SCCF:51:1,2009-07-01T12:00:00Z,26.5545,-82.1715,7.16,1111122 
SCCF RECON,ioos:station:SCCF:51:1,2009-07-01T13:00:00Z,26.5545,-82.1715,16.16,1111122 
SCCF RECON,ioos:station:SCCF:51:1,2009-07-01T14:00:00Z,26.5545,-82.1715,7.33,1111122 
SCCF RECON,ioos:station:SCCF:51:1,2009-07-01T15:00:00Z,26.5545,-82.1715,19.87,1111122 
SCCF RECON,ioos:station:SCCF:51:1,2009-07-01T16:00:00Z,26.5545,-82.1715,18.53,1111122 
SCCF RECON,ioos:station:SCCF:51:1,2009-07-01T17:00:00Z,26.5545,-82.1715,19.26,1111122 
SCCF RECON,ioos:station:SCCF:51:1,2009-07-01T18:00:00Z,26.5545,-82.1715,20.69,1111122 
SCCF RECON,ioos:station:SCCF:51:1,2009-07-01T19:00:00Z,26.5545,-82.1715,19.16,1111122 
SCCF RECON,ioos:station:SCCF:51:1,2009-07-01T20:00:00Z,26.5545,-82.1715,31.1,1111122 
SCCF RECON,ioos:station:SCCF:51:1,2009-07-01T21:00:00Z,26.5545,-82.1715,15.04,1111122 
SCCF RECON,ioos:station:SCCF:51:1,2009-07-01T22:00:00Z,26.5545,-82.1715,19.54,1111122 
SCCF RECON,ioos:station:SCCF:51:1,2009-07-01T23:00:00Z,26.5545,-82.1715,21.26,1111122 
SCCF RECON,ioos:station:SCCF:51:1,2009-07-02T00:00:00Z,26.5545,-82.1715,20.72,1111122 
SCCF RECON,ioos:station:SCCF:51:1,2009-07-02T01:00:00Z,26.5545,-82.1715,19.76,1111122 
SCCF RECON,ioos:station:SCCF:51:1,2009-07-02T02:00:00Z,26.5545,-82.1715,164.67,1111122 
SCCF RECON,ioos:station:SCCF:51:1,2009-07-02T03:00:00Z,26.5545,-82.1715,174.36,1111122 
SCCF RECON,ioos:station:SCCF:51:1,2009-07-02T04:00:00Z,26.5545,-82.1715,191.82,1111122 
SCCF RECON,ioos:station:SCCF:51:1,2009-07-02T05:00:00Z,26.5545,-82.1715,117.78,1111122 
SCCF RECON,ioos:station:SCCF:51:1,2009-07-02T06:00:00Z,26.5545,-82.1715,156.07,1111122 
SCCF RECON,ioos:station:SCCF:51:1,2009-07-02T07:00:00Z,26.5545,-82.1715,20.8,1111122 
SCCF RECON,ioos:station:SCCF:51:1,2009-07-02T08:00:00Z,26.5545,-82.1715,14.56,1111122 
SCCF RECON,ioos:station:SCCF:51:1,2009-07-02T09:00:00Z,26.5545,-82.1715,13.3,1111122 
SCCF RECON,ioos:station:SCCF:51:1,2009-07-02T10:00:00Z,26.5545,-82.1715,10.88,1111122 
SCCF RECON,ioos:station:SCCF:51:1,2009-07-02T11:00:00Z,26.5545,-82.1715,13.53,1111122 
SCCF RECON,ioos:station:SCCF:51:1,2009-07-02T12:00:00Z,26.5545,-82.1715,12.05,1111122 
SCCF RECON,ioos:station:SCCF:51:1,2009-07-02T13:00:00Z,26.5545,-82.1715,10.2,1111122 
SCCF RECON,ioos:station:SCCF:51:1,2009-07-02T14:00:00Z,26.5545,-82.1715,7.55,1111122 
SCCF RECON,ioos:station:SCCF:51:1,2009-07-02T15:00:00Z,26.5545,-82.1715,7.38,1111122 
SCCF RECON,ioos:station:SCCF:51:1,2009-07-02T16:00:00Z,26.5545,-82.1715,13.05,1111122 
SCCF RECON,ioos:station:SCCF:51:1,2009-07-02T17:00:00Z,26.5545,-82.1715,14.32,1111122 
SCCF RECON,ioos:station:SCCF:51:1,2009-07-02T18:00:00Z,26.5545,-82.1715,31.39,1111122 
SCCF RECON,ioos:station:SCCF:51:1,2009-07-02T19:00:00Z,26.5545,-82.1715,20.86,1111122 
SCCF RECON,ioos:station:SCCF:51:1,2009-07-02T20:00:00Z,26.5545,-82.1715,23.01,1111122 
SCCF RECON,ioos:station:SCCF:51:1,2009-07-02T21:00:00Z,26.5545,-82.1715,17.45,1111122 
SCCF RECON,ioos:station:SCCF:51:1,2009-07-02T22:00:00Z,26.5545,-82.1715,15.02,1111122 
SCCF RECON,ioos:station:SCCF:51:1,2009-07-02T23:00:00Z,26.5545,-82.1715,20.19,1111122 
SCCF RECON,ioos:station:SCCF:51:1,2009-07-03T00:00:00Z,26.5545,-82.1715,23.77,1111122 
SCCF RECON,ioos:station:SCCF:51:1,2009-07-03T01:00:00Z,26.5545,-82.1715,171.69,1111122 
SCCF RECON,ioos:station:SCCF:51:1,2009-07-03T02:00:00Z,26.5545,-82.1715,107.43,1111122 
SCCF RECON,ioos:station:SCCF:51:1,2009-07-03T03:00:00Z,26.5545,-82.1715,14.92,1111122 
SCCF RECON,ioos:station:SCCF:51:1,2009-07-03T04:00:00Z,26.5545,-82.1715,10.96,1111122 
SCCF RECON,ioos:station:SCCF:51:1,2009-07-03T05:00:00Z,26.5545,-82.1715,8.26,1111122 
SCCF RECON,ioos:station:SCCF:51:1,2009-07-03T06:00:00Z,26.5545,-82.1715,12.79,1111122 
SCCF RECON,ioos:station:SCCF:51:1,2009-07-03T07:00:00Z,26.5545,-82.1715,146.57,1111122 
SCCF RECON,ioos:station:SCCF:51:1,2009-07-03T08:00:00Z,26.5545,-82.1715,13.24,1111122 
SCCF RECON,ioos:station:SCCF:51:1,2009-07-03T09:00:00Z,26.5545,-82.1715,11.27,1111122 
SCCF RECON,ioos:station:SCCF:51:1,2009-07-03T10:00:00Z,26.5545,-82.1715,14.79,1111122 
SCCF RECON,ioos:station:SCCF:51:1,2009-07-03T11:00:00Z,26.5545,-82.1715,10.93,1111122 
SCCF RECON,ioos:station:SCCF:51:1,2009-07-03T12:00:00Z,26.5545,-82.1715,15.07,1111122 
SCCF RECON,ioos:station:SCCF:51:1,2009-07-03T13:00:00Z,26.5545,-82.1715,10.96,1111122 
SCCF RECON,ioos:station:SCCF:51:1,2009-07-03T14:00:00Z,26.5545,-82.1715,9.62,1111122 
SCCF RECON,ioos:station:SCCF:51:1,2009-07-03T15:00:00Z,26.5545,-82.1715,11.38,1111122 
SCCF RECON,ioos:station:SCCF:51:1,2009-07-03T16:00:00Z,26.5545,-82.1715,19.66,1111122 
SCCF RECON,ioos:station:SCCF:51:1,2009-07-03T17:00:00Z,26.5545,-82.1715,24.47,1111122 
SCCF RECON,ioos:station:SCCF:51:1,2009-07-03T18:00:00Z,26.5545,-82.1715,14.6,1111122 
SCCF RECON,ioos:station:SCCF:51:1,2009-07-03T19:00:00Z,26.5545,-82.1715,9.44,1111122 
SCCF RECON,ioos:station:SCCF:51:1,2009-07-03T20:00:00Z,26.5545,-82.1715,5.8,1111122 
SCCF RECON,ioos:station:SCCF:51:1,2009-07-03T21:00:00Z,26.5545,-82.1715,6.11,1111122 
SCCF RECON,ioos:station:SCCF:51:1,2009-07-03T22:00:00Z,26.5545,-82.1715,7.14,1111122 
SCCF RECON,ioos:station:SCCF:51:1,2009-07-03T23:00:00Z,26.5545,-82.1715,11.71,1111122 
SCCF RECON,ioos:station:SCCF:51:1,2009-07-04T00:00:00Z,26.5545,-82.1715,12.82,1111122 
SCCF RECON,ioos:station:SCCF:51:1,2009-07-04T01:00:00Z,26.5545,-82.1715,18.88,1111122 
SCCF RECON,ioos:station:SCCF:51:1,2009-07-04T02:00:00Z,26.5545,-82.1715,26.19,1111122 
SCCF RECON,ioos:station:SCCF:51:1,2009-07-04T03:00:00Z,26.5545,-82.1715,22.76,1111122 
SCCF RECON,ioos:station:SCCF:51:1,2009-07-04T04:00:00Z,26.5545,-82.1715,48.91,1111122 
SCCF RECON,ioos:station:SCCF:51:1,2009-07-04T05:00:00Z,26.5545,-82.1715,76.34,1111122 
SCCF RECON,ioos:station:SCCF:51:1,2009-07-04T06:00:00Z,26.5545,-82.1715,60.47,1111122 
SCCF RECON,ioos:station:SCCF:51:1,2009-07-04T07:00:00Z,26.5545,-82.1715,54.17,1111122 
SCCF RECON,ioos:station:SCCF:51:1,2009-07-04T08:00:00Z,26.5545,-82.1715,45.01,1111122 
SCCF RECON,ioos:station:SCCF:51:1,2009-07-04T09:00:00Z,26.5545,-82.1715,22.64,1111122 
SCCF RECON,ioos:station:SCCF:51:1,2009-07-04T10:00:00Z,26.5545,-82.1715,23.04,1111122 
SCCF RECON,ioos:station:SCCF:51:1,2009-07-04T11:00:00Z,26.5545,-82.1715,29.46,1111122 
SCCF RECON,ioos:station:SCCF:51:1,2009-07-04T12:00:00Z,26.5545,-82.1715,29.37,1111122 
SCCF RECON,ioos:station:SCCF:51:1,2009-07-04T13:00:00Z,26.5545,-82.1715,36.19,1111122 
SCCF RECON,ioos:station:SCCF:51:1,2009-07-04T14:00:00Z,26.5545,-82.1715,33.5,1111122 
SCCF RECON,ioos:station:SCCF:51:1,2009-07-04T15:00:00Z,26.5545,-82.1715,38.23,1111122 
SCCF RECON,ioos:station:SCCF:51:1,2009-07-04T16:00:00Z,26.5545,-82.1715,190.38,1111122 
SCCF RECON,ioos:station:SCCF:51:1,2009-07-04T17:00:00Z,26.5545,-82.1715,39.45,1111122 
SCCF RECON,ioos:station:SCCF:51:1,2009-07-04T18:00:00Z,26.5545,-82.1715,40.85,1111122 
SCCF RECON,ioos:station:SCCF:51:1,2009-07-04T19:00:00Z,26.5545,-82.1715,50.26,1111122 
SCCF RECON,ioos:station:SCCF:51:1,2009-07-04T20:00:00Z,26.5545,-82.1715,6.29,1111122 
SCCF RECON,ioos:station:SCCF:51:1,2009-07-04T21:00:00Z,26.5545,-82.1715,6.12,1111122 
SCCF RECON,ioos:station:SCCF:51:1,2009-07-04T22:00:00Z,26.5545,-82.1715,6.5,1111122 
SCCF RECON,ioos:station:SCCF:51:1,2009-07-04T23:00:00Z,26.5545,-82.1715,6.27,1111122 
SCCF RECON,ioos:station:SCCF:51:1,2009-07-05T00:00:00Z,26.5545,-82.1715,6.08,1111122 
SCCF RECON,ioos:station:SCCF:51:1,2009-07-05T01:00:00Z,26.5545,-82.1715,109.41,1111122 
SCCF RECON,ioos:station:SCCF:51:1,2009-07-05T02:00:00Z,26.5545,-82.1715,15.6,1111122 
SCCF RECON,ioos:station:SCCF:51:1,2009-07-05T03:00:00Z,26.5545,-82.1715,12.99,1111122 
SCCF RECON,ioos:station:SCCF:51:1,2009-07-05T04:00:00Z,26.5545,-82.1715,11.82,1111122 
SCCF RECON,ioos:station:SCCF:51:1,2009-07-05T05:00:00Z,26.5545,-82.1715,10.19,1111122 
SCCF RECON,ioos:station:SCCF:51:1,2009-07-05T06:00:00Z,26.5545,-82.1715,12.82,1111122 
SCCF RECON,ioos:station:SCCF:51:1,2009-07-05T07:00:00Z,26.5545,-82.1715,12.39,1111122 
SCCF RECON,ioos:station:SCCF:51:1,2009-07-05T08:00:00Z,26.5545,-82.1715,9.04,1111122 
SCCF RECON,ioos:station:SCCF:51:1,2009-07-05T09:00:00Z,26.5545,-82.1715,19.23,1111122 
SCCF RECON,ioos:station:SCCF:51:1,2009-07-05T10:00:00Z,26.5545,-82.1715,13.35,1111122 
SCCF RECON,ioos:station:SCCF:51:1,2009-07-05T11:00:00Z,26.5545,-82.1715,141.75,1111122 
SCCF RECON,ioos:station:SCCF:51:1,2009-07-05T12:00:00Z,26.5545,-82.1715,22.18,1111122 
SCCF RECON,ioos:station:SCCF:51:1,2009-07-05T13:00:00Z,26.5545,-82.1715,19.51,1111122 
SCCF RECON,ioos:station:SCCF:51:1,2009-07-05T14:00:00Z,26.5545,-82.1715,156.77,1111122 
SCCF RECON,ioos:station:SCCF:51:1,2009-07-05T15:00:00Z,26.5545,-82.1715,15.83,1111122 
SCCF RECON,ioos:station:SCCF:51:1,2009-07-05T16:00:00Z,26.5545,-82.1715,14.04,1111122 
SCCF RECON,ioos:station:SCCF:51:1,2009-07-05T17:00:00Z,26.5545,-82.1715,16.41,1111122 
SCCF RECON,ioos:station:SCCF:51:1,2009-07-05T18:00:00Z,26.5545,-82.1715,27.56,1111122 
SCCF RECON,ioos:station:SCCF:51:1,2009-07-05T19:00:00Z,26.5545,-82.1715,21.0,1111122 
SCCF RECON,ioos:station:SCCF:51:1,2009-07-05T20:00:00Z,26.5545,-82.1715,21.41,1111122 
SCCF RECON,ioos:station:SCCF:51:1,2009-07-05T21:00:00Z,26.5545,-82.1715,14.26,1111122 
SCCF RECON,ioos:station:SCCF:51:1,2009-07-05T22:00:00Z,26.5545,-82.1715,11.06,1111122 
SCCF RECON,ioos:station:SCCF:51:1,2009-07-05T23:00:00Z,26.5545,-82.1715,10.75,1111122 
SCCF RECON,ioos:station:SCCF:51:1,2009-07-06T00:00:00Z,26.5545,-82.1715,15.05,1111122 
SCCF RECON,ioos:station:SCCF:51:1,2009-07-06T01:00:00Z,26.5545,-82.1715,10.57,1111122 
SCCF RECON,ioos:station:SCCF:51:1,2009-07-06T02:00:00Z,26.5545,-82.1715,115.76,1111122 
SCCF RECON,ioos:station:SCCF:51:1,2009-07-06T03:00:00Z,26.5545,-82.1715,119.84,1111122 
SCCF RECON,ioos:station:SCCF:51:1,2009-07-06T04:00:00Z,26.5545,-82.1715,128.86,1111122 
SCCF RECON,ioos:station:SCCF:51:1,2009-07-06T05:00:00Z,26.5545,-82.1715,27.82,1111122 
SCCF RECON,ioos:station:SCCF:51:1,2009-07-06T06:00:00Z,26.5545,-82.1715,28.96,1111122 
SCCF RECON,ioos:station:SCCF:51:1,2009-07-06T07:00:00Z,26.5545,-82.1715,20.18,1111122 
SCCF RECON,ioos:station:SCCF:51:1,2009-07-06T08:00:00Z,26.5545,-82.1715,22.18,1111122 
SCCF RECON,ioos:station:SCCF:51:1,2009-07-06T09:00:00Z,26.5545,-82.1715,17.95,1111122 
SCCF RECON,ioos:station:SCCF:51:1,2009-07-06T10:00:00Z,26.5545,-82.1715,18.58,1111122 
SCCF RECON,ioos:station:SCCF:51:1,2009-07-06T11:00:00Z,26.5545,-82.1715,17.41,1111122 
SCCF RECON,ioos:station:SCCF:51:1,2009-07-06T12:00:00Z,26.5545,-82.1715,28.99,1111122 
SCCF RECON,ioos:station:SCCF:51:1,2009-07-06T13:00:00Z,26.5545,-82.1715,19.72,1111122 
SCCF RECON,ioos:station:SCCF:51:1,2009-07-06T14:00:00Z,26.5545,-82.1715,21.9,1111122 
SCCF RECON,ioos:station:SCCF:51:1,2009-07-06T15:00:00Z,26.5545,-82.1715,22.54,1111122 
SCCF RECON,ioos:station:SCCF:51:1,2009-07-06T16:00:00Z,26.5545,-82.1715,21.42,1111122 
SCCF RECON,ioos:station:SCCF:51:1,2009-07-06T17:00:00Z,26.5545,-82.1715,21.96,1111122 
SCCF RECON,ioos:station:SCCF:51:1,2009-07-06T18:00:00Z,26.5545,-82.1715,31.91,1111122 
SCCF RECON,ioos:station:SCCF:51:1,2009-07-06T19:00:00Z,26.5545,-82.1715,29.57,1111122 
SCCF RECON,ioos:station:SCCF:51:1,2009-07-06T20:00:00Z,26.5545,-82.1715,32.1,1111122 
SCCF RECON,ioos:station:SCCF:51:1,2009-07-06T21:00:00Z,26.5545,-82.1715,31.55,1111122 
SCCF RECON,ioos:station:SCCF:51:1,2009-07-06T22:00:00Z,26.5545,-82.1715,36.5,1111122 
SCCF RECON,ioos:station:SCCF:51:1,2009-07-06T23:00:00Z,26.5545,-82.1715,42.24,1111122 
SCCF RECON,ioos:station:SCCF:51:1,2009-07-07T00:00:00Z,26.5545,-82.1715,41.45,1111122 
SCCF RECON,ioos:station:SCCF:51:1,2009-07-07T01:00:00Z,26.5545,-82.1715,183.12,1111122 
SCCF RECON,ioos:station:SCCF:51:1,2009-07-07T02:00:00Z,26.5545,-82.1715,165.38,1111122 
SCCF RECON,ioos:station:SCCF:51:1,2009-07-07T03:00:00Z,26.5545,-82.1715,120.06,1111122 
SCCF RECON,ioos:station:SCCF:51:1,2009-07-07T04:00:00Z,26.5545,-82.1715,62.65,1111122 
SCCF RECON,ioos:station:SCCF:51:1,2009-07-07T05:00:00Z,26.5545,-82.1715,40.91,1111122 
SCCF RECON,ioos:station:SCCF:51:1,2009-07-07T06:00:00Z,26.5545,-82.1715,37.14,1111122 
SCCF RECON,ioos:station:SCCF:51:1,2009-07-07T07:00:00Z,26.5545,-82.1715,35.76,1111122 
SCCF RECON,ioos:station:SCCF:51:1,2009-07-07T08:00:00Z,26.5545,-82.1715,39.48,1111122 
SCCF RECON,ioos:station:SCCF:51:1,2009-07-07T09:00:00Z,26.5545,-82.1715,41.48,1111122 
SCCF RECON,ioos:station:SCCF:51:1,2009-07-07T10:00:00Z,26.5545,-82.1715,45.31,1111122 
SCCF RECON,ioos:station:SCCF:51:1,2009-07-07T11:00:00Z,26.5545,-82.1715,48.62,1111122 
SCCF RECON,ioos:station:SCCF:51:1,2009-07-07T12:00:00Z,26.5545,-82.1715,53.16,1111122 
SCCF RECON,ioos:station:SCCF:51:1,2009-07-07T13:00:00Z,26.5545,-82.1715,61.93,1111122 
SCCF RECON,ioos:station:SCCF:51:1,2009-07-07T14:00:00Z,26.5545,-82.1715,61.65,1111122 
SCCF RECON,ioos:station:SCCF:51:1,2009-07-07T15:00:00Z,26.5545,-82.1715,61.48,1111122 
SCCF RECON,ioos:station:SCCF:51:1,2009-07-07T16:00:00Z,26.5545,-82.1715,63.83,1111122 
SCCF RECON,ioos:station:SCCF:51:1,2009-07-07T17:00:00Z,26.5545,-82.1715,64.83,1111122 
SCCF RECON,ioos:station:SCCF:51:1,2009-07-07T18:00:00Z,26.5545,-82.1715,69.46,1111122 
SCCF RECON,ioos:station:SCCF:51:1,2009-07-07T19:00:00Z,26.5545,-82.1715,71.81,1111122 
SCCF RECON,ioos:station:SCCF:51:1,2009-07-07T20:00:00Z,26.5545,-82.1715,83.93,1111122 
SCCF RECON,ioos:station:SCCF:51:1,2009-07-07T21:00:00Z,26.5545,-82.1715,100.15,1111122 
SCCF RECON,ioos:station:SCCF:51:1,2009-07-07T22:00:00Z,26.5545,-82.1715,103.25,1111122 
SCCF RECON,ioos:station:SCCF:51:1,2009-07-07T23:00:00Z,26.5545,-82.1715,100.62,1111122 
SCCF RECON,ioos:station:SCCF:51:1,2009-07-08T00:00:00Z,26.5545,-82.1715,98.89,1111122 
SCCF RECON,ioos:station:SCCF:51:1,2009-07-08T01:00:00Z,26.5545,-82.1715,181.68,1111122 
SCCF RECON,ioos:station:SCCF:51:1,2009-07-08T02:00:00Z,26.5545,-82.1715,191.42,1111122 
SCCF RECON,ioos:station:SCCF:51:1,2009-07-08T03:00:00Z,26.5545,-82.1715,149.01,1111122 
SCCF RECON,ioos:station:SCCF:51:1,2009-07-08T04:00:00Z,26.5545,-82.1715,190.08,1111122 
SCCF RECON,ioos:station:SCCF:51:1,2009-07-08T05:00:00Z,26.5545,-82.1715,190.8,1111122 
SCCF RECON,ioos:station:SCCF:51:1,2009-07-08T06:00:00Z,26.5545,-82.1715,190.94,1111122 
SCCF RECON,ioos:station:SCCF:51:1,2009-07-08T07:00:00Z,26.5545,-82.1715,114.11,1111122 
SCCF RECON,ioos:station:SCCF:51:1,2009-07-08T08:00:00Z,26.5545,-82.1715,132.96,1111122 
SCCF RECON,ioos:station:SCCF:51:1,2009-07-08T09:00:00Z,26.5545,-82.1715,139.82,1111122 
SCCF RECON,ioos:station:SCCF:51:1,2009-07-08T10:00:00Z,26.5545,-82.1715,125.03,1111122 
SCCF RECON,ioos:station:SCCF:51:1,2009-07-08T11:00:00Z,26.5545,-82.1715,144.52,1111122 
SCCF RECON,ioos:station:SCCF:51:1,2009-07-08T12:00:00Z,26.5545,-82.1715,153.23,1111122 
SCCF RECON,ioos:station:SCCF:51:1,2009-07-08T13:00:00Z,26.5545,-82.1715,156.51,1111122 
SCCF RECON,ioos:station:SCCF:51:1,2009-07-08T14:00:00Z,26.5545,-82.1715,166.47,1111122 
SCCF RECON,ioos:station:SCCF:51:1,2009-07-08T15:00:00Z,26.5545,-82.1715,177.22,1111122 
SCCF RECON,ioos:station:SCCF:51:1,2009-07-08T16:00:00Z,26.5545,-82.1715,186.4,1111122 
SCCF RECON,ioos:station:SCCF:51:1,2009-07-08T17:00:00Z,26.5545,-82.1715,8.76,1111122 
SCCF RECON,ioos:station:SCCF:51:1,2009-07-08T18:00:00Z,26.5545,-82.1715,6.67,1111122 
SCCF RECON,ioos:station:SCCF:51:1,2009-07-08T19:00:00Z,26.5545,-82.1715,22.26,1111122 
SCCF RECON,ioos:station:SCCF:51:1,2009-07-08T20:00:00Z,26.5545,-82.1715,190.85,1111122 
SCCF RECON,ioos:station:SCCF:51:1,2009-07-08T21:00:00Z,26.5545,-82.1715,191.05,1111122 
SCCF RECON,ioos:station:SCCF:51:1,2009-07-08T22:00:00Z,26.5545,-82.1715,191.05,1111122 
SCCF RECON,ioos:station:SCCF:51:1,2009-07-08T23:00:00Z,26.5545,-82.1715,190.91,1111122 
SCCF RECON,ioos:station:SCCF:51:1,2009-07-09T00:00:00Z,26.5545,-82.1715,190.94,1111122 
SCCF RECON,ioos:station:SCCF:51:1,2009-07-09T01:00:00Z,26.5545,-82.1715,190.69,1111122 
SCCF RECON,ioos:station:SCCF:51:1,2009-07-09T02:00:00Z,26.5545,-82.1715,191.36,1111122 
SCCF RECON,ioos:station:SCCF:51:1,2009-07-09T03:00:00Z,26.5545,-82.1715,191.84,1111122 
SCCF RECON,ioos:station:SCCF:51:1,2009-07-09T04:00:00Z,26.5545,-82.1715,191.35,1111122 
SCCF RECON,ioos:station:SCCF:51:1,2009-07-09T05:00:00Z,26.5545,-82.1715,191.83,1111122 
SCCF RECON,ioos:station:SCCF:51:1,2009-07-09T06:00:00Z,26.5545,-82.1715,191.83,1111122 
SCCF RECON,ioos:station:SCCF:51:1,2009-07-09T07:00:00Z,26.5545,-82.1715,191.78,1111122 
SCCF RECON,ioos:station:SCCF:51:1,2009-07-09T08:00:00Z,26.5545,-82.1715,191.67,1111122 
SCCF RECON,ioos:station:SCCF:51:1,2009-07-09T09:00:00Z,26.5545,-82.1715,191.76,1111122 
SCCF RECON,ioos:station:SCCF:51:1,2009-07-09T10:00:00Z,26.5545,-82.1715,191.66,1111122 
SCCF RECON,ioos:station:SCCF:51:1,2009-07-09T11:00:00Z,26.5545,-82.1715,191.51,1111122 
SCCF RECON,ioos:station:SCCF:51:1,2009-07-09T12:00:00Z,26.5545,-82.1715,191.3,1111122 
SCCF RECON,ioos:station:SCCF:51:1,2009-07-09T13:00:00Z,26.5545,-82.1715,191.35,1111122 
SCCF RECON,ioos:station:SCCF:51:1,2009-07-09T14:00:00Z,26.5545,-82.1715,191.44,1111122 
SCCF RECON,ioos:station:SCCF:51:1,2009-07-09T15:00:00Z,26.5545,-82.1715,9.16,1111122 
SCCF RECON,ioos:station:SCCF:51:1,2009-07-09T20:00:00Z,26.5545,-82.1715,9.09,1111122 
SCCF RECON,ioos:station:SCCF:51:1,2009-07-09T21:00:00Z,26.5545,-82.1715,4.95,1111122 
SCCF RECON,ioos:station:SCCF:51:1,2009-07-09T22:00:00Z,26.5545,-82.1715,18.19,1111122 
SCCF RECON,ioos:station:SCCF:51:1,2009-07-09T23:00:00Z,26.5545,-82.1715,11.9,1111122 
SCCF RECON,ioos:station:SCCF:51:1,2009-07-10T00:00:00Z,26.5545,-82.1715,2.61,1111122 
SCCF RECON,ioos:station:SCCF:51:1,2009-07-10T01:00:00Z,26.5545,-82.1715,6.44,1111122 
SCCF RECON,ioos:station:SCCF:51:1,2009-07-10T02:00:00Z,26.5545,-82.1715,2.91,1111122 
SCCF RECON,ioos:station:SCCF:51:1,2009-07-10T03:00:00Z,26.5545,-82.1715,2.7,1111122 
SCCF RECON,ioos:station:SCCF:51:1,2009-07-10T04:00:00Z,26.5545,-82.1715,108.14,1111122 
SCCF RECON,ioos:station:SCCF:51:1,2009-07-10T05:00:00Z,26.5545,-82.1715,95.31,1111122 
SCCF RECON,ioos:station:SCCF:51:1,2009-07-10T06:00:00Z,26.5545,-82.1715,133.93,1111122 
SCCF RECON,ioos:station:SCCF:51:1,2009-07-10T07:00:00Z,26.5545,-82.1715,9.24,1111122 
SCCF RECON,ioos:station:SCCF:51:1,2009-07-10T08:00:00Z,26.5545,-82.1715,5.53,1111122 
SCCF RECON,ioos:station:SCCF:51:1,2009-07-10T09:00:00Z,26.5545,-82.1715,3.28,1111122 
SCCF RECON,ioos:station:SCCF:51:1,2009-07-10T10:00:00Z,26.5545,-82.1715,3.2,1111122 
SCCF RECON,ioos:station:SCCF:51:1,2009-07-10T11:00:00Z,26.5545,-82.1715,2.67,1111122 
SCCF RECON,ioos:station:SCCF:51:1,2009-07-10T12:00:00Z,26.5545,-82.1715,8.91,1111122 
SCCF RECON,ioos:station:SCCF:51:1,2009-07-10T13:00:00Z,26.5545,-82.1715,2.72,1111122 
SCCF RECON,ioos:station:SCCF:51:1,2009-07-10T14:00:00Z,26.5545,-82.1715,2.76,1111122 
SCCF RECON,ioos:station:SCCF:51:1,2009-07-10T15:00:00Z,26.5545,-82.1715,5.57,1111122 
SCCF RECON,ioos:station:SCCF:51:1,2009-07-10T16:00:00Z,26.5545,-82.1715,65.32,1111122 
SCCF RECON,ioos:station:SCCF:51:1,2009-07-10T17:00:00Z,26.5545,-82.1715,7.98,1111122 
SCCF RECON,ioos:station:SCCF:51:1,2009-07-10T18:00:00Z,26.5545,-82.1715,3.58,1111122 
SCCF RECON,ioos:station:SCCF:51:1,2009-07-10T19:00:00Z,26.5545,-82.1715,3.43,1111122 
SCCF RECON,ioos:station:SCCF:51:1,2009-07-10T20:00:00Z,26.5545,-82.1715,14.36,1111122 
SCCF RECON,ioos:station:SCCF:51:1,2009-07-10T21:00:00Z,26.5545,-82.1715,4.37,1111122 
SCCF RECON,ioos:station:SCCF:51:1,2009-07-10T22:00:00Z,26.5545,-82.1715,6.91,1111122 
SCCF RECON,ioos:station:SCCF:51:1,2009-07-10T23:00:00Z,26.5545,-82.1715,4.22,1111122 
SCCF RECON,ioos:station:SCCF:51:1,2009-07-11T00:00:00Z,26.5545,-82.1715,2.87,1111122 
SCCF RECON,ioos:station:SCCF:51:1,2009-07-11T01:00:00Z,26.5545,-82.1715,131.61,1111122 
SCCF RECON,ioos:station:SCCF:51:1,2009-07-11T02:00:00Z,26.5545,-82.1715,76.27,1111122 
SCCF RECON,ioos:station:SCCF:51:1,2009-07-11T03:00:00Z,26.5545,-82.1715,2.38,1111122 
SCCF RECON,ioos:station:SCCF:51:1,2009-07-11T04:00:00Z,26.5545,-82.1715,4.6,1111122 
SCCF RECON,ioos:station:SCCF:51:1,2009-07-11T05:00:00Z,26.5545,-82.1715,6.05,1111122 
SCCF RECON,ioos:station:SCCF:51:1,2009-07-11T06:00:00Z,26.5545,-82.1715,142.43,1111122 
SCCF RECON,ioos:station:SCCF:51:1,2009-07-11T07:00:00Z,26.5545,-82.1715,132.46,1111122 
SCCF RECON,ioos:station:SCCF:51:1,2009-07-11T08:00:00Z,26.5545,-82.1715,59.79,1111122 
SCCF RECON,ioos:station:SCCF:51:1,2009-07-11T09:00:00Z,26.5545,-82.1715,3.56,1111122 
SCCF RECON,ioos:station:SCCF:51:1,2009-07-11T10:00:00Z,26.5545,-82.1715,3.94,1111122 
SCCF RECON,ioos:station:SCCF:51:1,2009-07-11T11:00:00Z,26.5545,-82.1715,3.86,1111122 
SCCF RECON,ioos:station:SCCF:51:1,2009-07-11T12:00:00Z,26.5545,-82.1715,2.54,1111122 
SCCF RECON,ioos:station:SCCF:51:1,2009-07-11T13:00:00Z,26.5545,-82.1715,2.33,1111122 
SCCF RECON,ioos:station:SCCF:51:1,2009-07-11T14:00:00Z,26.5545,-82.1715,2.02,1111122 
SCCF RECON,ioos:station:SCCF:51:1,2009-07-11T15:00:00Z,26.5545,-82.1715,2.12,1111122 
SCCF RECON,ioos:station:SCCF:51:1,2009-07-11T16:00:00Z,26.5545,-82.1715,5.37,1111122 
SCCF RECON,ioos:station:SCCF:51:1,2009-07-11T17:00:00Z,26.5545,-82.1715,6.22,1111122 
SCCF RECON,ioos:station:SCCF:51:1,2009-07-11T18:00:00Z,26.5545,-82.1715,14.04,1111122 
SCCF RECON,ioos:station:SCCF:51:1,2009-07-11T19:00:00Z,26.5545,-82.1715,3.85,1111122 
SCCF RECON,ioos:station:SCCF:51:1,2009-07-11T20:00:00Z,26.5545,-82.1715,9.53,1111122 
SCCF RECON,ioos:station:SCCF:51:1,2009-07-11T21:00:00Z,26.5545,-82.1715,4.91,1111122 
SCCF RECON,ioos:station:SCCF:51:1,2009-07-11T22:00:00Z,26.5545,-82.1715,17.09,1111122 
SCCF RECON,ioos:station:SCCF:51:1,2009-07-11T23:00:00Z,26.5545,-82.1715,2.59,1111122 
SCCF RECON,ioos:station:SCCF:51:1,2009-07-12T00:00:00Z,26.5545,-82.1715,2.01,1111122 
SCCF RECON,ioos:station:SCCF:51:1,2009-07-12T01:00:00Z,26.5545,-82.1715,53.99,1111122 
SCCF RECON,ioos:station:SCCF:51:1,2009-07-12T02:00:00Z,26.5545,-82.1715,2.36,1111122 
SCCF RECON,ioos:station:SCCF:51:1,2009-07-12T03:00:00Z,26.5545,-82.1715,2.91,1111122 
SCCF RECON,ioos:station:SCCF:51:1,2009-07-12T04:00:00Z,26.5545,-82.1715,2.86,1111122 
SCCF RECON,ioos:station:SCCF:51:1,2009-07-12T05:00:00Z,26.5545,-82.1715,2.2,1111122 
SCCF RECON,ioos:station:SCCF:51:1,2009-07-12T06:00:00Z,26.5545,-82.1715,101.08,1111122 
SCCF RECON,ioos:station:SCCF:51:1,2009-07-12T07:00:00Z,26.5545,-82.1715,10.08,1111122 
SCCF RECON,ioos:station:SCCF:51:1,2009-07-12T08:00:00Z,26.5545,-82.1715,6.52,1111122 
SCCF RECON,ioos:station:SCCF:51:1,2009-07-12T09:00:00Z,26.5545,-82.1715,4.19,1111122 
SCCF RECON,ioos:station:SCCF:51:1,2009-07-12T10:00:00Z,26.5545,-82.1715,3.18,1111122 
SCCF RECON,ioos:station:SCCF:51:1,2009-07-12T11:00:00Z,26.5545,-82.1715,3.69,1111122 
SCCF RECON,ioos:station:SCCF:51:1,2009-07-12T12:00:00Z,26.5545,-82.1715,2.97,1111122 
SCCF RECON,ioos:station:SCCF:51:1,2009-07-12T13:00:00Z,26.5545,-82.1715,2.72,1111122 
SCCF RECON,ioos:station:SCCF:51:1,2009-07-12T14:00:00Z,26.5545,-82.1715,2.62,1111122 